Location: Darmstadt
(49.8706°N, 8.6494°E)
Time: 06:03:34
(UTC+01:00)

USA 308 - Pass Details

Date: 31 October 2020
Orbit: 571 x 578 km, 54.0° (Epoch: 30 November)

Event Time Altitude Azimuth Distance (km) Brightness Sun altitude
Rises 18:09:21 0° 295° (WNW) 2,789 7.4 -11.0°
Reaches altitude 10° 18:11:39 10° 292° (WNW) 1,886 6.5 -11.4°
Maximum altitude 18:15:51 57° 214° (SSW) 677 3.5 -12.1°
Drops below altitude 10° 18:20:02 10° 135° (SE) 1,873 5.2 -12.7°
Enters shadow 18:20:39 - 134° (SE) 2,110 5.4 -12.8°
